Weather in Airlie Beach

Australia     20°16′08″S   148°43′09″E
temp.,
°C
wind,
m/s
gust,
m/s
humid.,
%
clouds,
%
prec.,
mm/h
press.,
hPa
HPBL,
m
2 december, thu
thu201:00+26s33801 0.0 1009265
04:00+26s33840 0.0 1009233
07:00+26sse44820 0.0 1011379
10:00+28se44730 0.0 1011631
13:00+28ese55700 0.0 1009640
16:00+28e55724 0.0 1008622
19:00+27ese45799 0.0 1010530
22:00+27ese45795 0.0 1011499
3 december, fri
fri301:00+26se348137 0.0 1010582
04:00+26s338215 0.0 1010404
07:00+26sse45796 1.7 1011282
10:00+28se677347 2.3 1012865
13:00+28se787055 0.0 1010873
16:00+28se797426 0.0 1009836
19:00+27se710805 0.0 1010809
22:00+26se79827 0.4 1012761
4 december, sat
sat401:00+26se68804 0.1 1010663
04:00+26sse68802 0.1 1010774
07:00+26sse79808 0.1 1011883
10:00+27se897410 0.6 10111047
13:00+28se89700 0.1 10091034
16:00+27se810710 0.1 1008699
19:00+26se79740 0.0 1009586
22:00+26se67750 0.0 1010702
5 december, sun
sun501:00+26se57740 0.0 1008750
04:00+25sse457617 0.0 1008788
07:00+26sse467512 0.0 1010830
10:00+27se68713 0.0 10101049
13:00+28se67680 0.0 1009960
16:00+27ese78700 0.0 1008769
19:00+27ese910750 0.0 1008749
22:00+27ese897464 0.0 10101014
6 december, mon
mon601:00+27ese897099 0.0 10081185
04:00+26ese7874100 0.1 1009937
07:00+27ese7873100 0.2 1011965
10:00+28ese676465 0.3 10111279
13:00+28se66660 0.1 1010966
16:00+28ese77670 0.1 1008720
19:00+27ese78750 0.0 1009641
22:00+26se79751 0.0 1011787